Regional Weather Roundup
Issued by NWS Green Bay, WI

Home | Current Version | Previous Version | Text Only | Print | Product List | Glossary On
Versions: 1 2 3 4 5 6 7 8 9 10 11 12 13 14 15 16 17 18 19 20 21 22 23 24 25 26 27 28 29 30 31 32 33 34 35 36 37 38 39 40 41 42 43 44 45 46 47 48 49 50
000
ASUS43 KGRB 270059
RWRGRB

NORTH-CENTRAL AND NORTHEAST WISCONSIN REGIONAL WEATHER ROUNDUP
NATIONAL WEATHER SERVICE GREEN BAY WI
700 PM CST WED NOV 26 2014

WIZ005-009-010>012-018-019-270200-
NORTH CENTRAL WISCONSIN

CITY           SKY/WX    TMP DP  RH WIND       PRES   REMARKS
IRONWOOD       CLOUDY    21  18  86 N6        30.19R
MANITOWISH WTR NOT AVBL
ARBOR VITAE    NOT AVBL
EAGLE RIVER    NOT AVBL
LAND O LAKES   NOT AVBL
RHINELANDER    CLOUDY    20  17  88 NW6       30.14S
PHILLIPS       NOT AVBL
ANTIGO         NOT AVBL
TOMAHAWK       NOT AVBL
MERRILL        NOT AVBL
$$

WIZ013-073-270200-
NORTHEAST WISCONSIN

CITY           SKY/WX    TMP DP  RH WIND       PRES   REMARKS
IRON MOUNTAIN  CLOUDY    23  18  81 NW6       30.12F
MARINETTE      CLOUDY    21  16  79 NW3       30.16S
$$

WIZ017-030-035>037-045-270200-
CENTRAL WISCONSIN

CITY           SKY/WX    TMP DP  RH WIND       PRES   REMARKS
MEDFORD        NOT AVBL
WAUSAU         LGT SNOW  23  20  88 NW7       30.15S FOG
MOSINEE        LGT SNOW  23  23 100 NW6       30.17R
MARSHFIELD     LGT SNOW  23  20  88 NW9       30.17R FOG
WISC RAPIDS    LGT SNOW  23  18  81 NW5       30.20R
STEVENS POINT  NOT AVBL
WAUPACA        NOT AVBL
SHAWANO        NOT AVBL
CLINTONVILLE   NOT AVBL
$$

WIZ038-039-048-051-270200-
FOX VALLEY

CITY           SKY/WX    TMP DP  RH WIND       PRES   REMARKS
NWS GREEN BAY  PTCLDY    16  13  88 CALM      30.17F FOG
APPLETON       MOCLDY    16  16 100 NW6       30.17  WCI   7
OSHKOSH        MOCLDY    20  16  84 MISG      30.18R FOG
FOND DU LAC    CLOUDY    20  16  84 NW7       30.18R
$$

WIZ022-050-052-270200-
EAST CENTRAL WISCONSIN

CITY           SKY/WX    TMP DP  RH WIND       PRES   REMARKS
STURGEON BAY   CLOUDY    23  16  74 NW7       30.16S
MANITOWOC      NOT AVBL
SHEBOYGAN      PTCLDY    19  16  88 NW7       30.17R WCI  10
$$

LMZ563-521-522-541>543-270200-
LAKESHORE

STATION/POSITION TIME  TEMP    WIND        PRES    VSBY  WAVE
                       AIR SEA DIR/SP/G                  HT/PER
                 (UTC) (F)     (DEG/KT/KT) (MB)    (MI)  (FT/S)
SHEBOYGAN LKSHOR 0000   24 37  340/  5/  6 1022.6F
KEWAUNEE LKSHORE 0000   20     300/  2/  4 1020.7R
ALGOMA MARINA    0000             CALM       N/A
NORTHPORT PIER   0000   27     310/ 10/ 12 1021.0F
N MID LAKE BUOY  0000   29 42  310/  8/ 12 1021.8F         1
SISTER BAY LKSHO 0000          340/  6/  7   N/A
CHAMBERS ISLAND  0000   25     280/  3/  7 1021.3F
MENOMINEE LKSHOR 0000   22     270/  6/ 10 1022.0F
$$



USA.gov is the U.S. government's official web portal to all federal, state and local government web resources and services.